Regional Weather Roundup
Issued by NWS

Home | Current Version | Previous Version | Graphics & Text | Print | Product List | Glossary On
Versions: 1 2 3 4 5 6 7 8 9 10 11 12 13 14 15 16 17 18 19 20 21 22 23 24 25 26
000
ASUS45 KBOU 121310
RWRCO

WEATHER ROUNDUP FOR COLORADO
NATIONAL WEATHER SERVICE DENVER/BOULDER CO
600 AM MST TUE DEC 12 2017

NOTE: "FAIR" INDICATES FEW OR NO CLOUDS BELOW 12000 FEET WITH NO
SIGNIFICANT WEATHER AND/OR OBSTRUCTIONS TO VISIBILITY.

COZ001>005-013-030-031-121400-
...NORTHWEST COLORADO...

CITY           SKY/WX    TMP DP  RH WIND       PRES   REMARKS
CRAIG          FAIR       7   2  80 CALM      30.55F
HAYDEN         FAIR      22  12  65 E12       30.55F WCI  10
MEEKER         FAIR      14   8  77 NE5       30.54S WCI   6
RABBIT EARS PA FAIR      27  10  50 W12G21    30.57S WCI  16
STEAMBOAT SPGS FAIR      16  11  80 CALM      30.56S
WALDEN         FAIR       7   1  78 SE6       30.55S WCI  -3
$$

COZ006>008-011-121400-
...WEST CENTRAL VALLEYS...

CITY           SKY/WX    TMP DP  RH WIND       PRES   REMARKS
GRAND JUNCTION FAIR      24   5  44 SE7       30.53S WCI  16
MONTROSE       FAIR      18   6  59 S7        30.57S WCI   9
EAGLE          FAIR       8   4  83 E3        30.65S
RIFLE          FAIR      20   7  57 SW3       30.57S
DELTA          FAIR      19   1  46 CALM      30.56F
NUCLA          FAIR      23   1  39 MISG      30.55S
$$

COZ017>023-064>068-121400-
...SOUTHWEST COLORADO...

CITY           SKY/WX    TMP DP  RH WIND       PRES   REMARKS
DURANGO        FAIR      19   3  49 N8        30.50F WCI   9
CORTEZ         FAIR      11   1  64 E6        30.51S WCI   1
PAGOSA SPRINGS FAIR      20   0  40 CALM      30.52S
TELLURIDE      FAIR      31   0  26 SE6       30.57S WCI  26
WOLF CREEK PAS FAIR      32  -6  19 W9        30.67S WCI  24
$$

COZ009-010-012-014-032>034-037-058>063-121400-
...CENTRAL COLORADO...

CITY           SKY/WX    TMP DP  RH WIND       PRES   REMARKS
ASPEN          FAIR      17   9  70 S7        30.55F WCI   8
BUENA VISTA    FAIR      19   8  62 W3        30.51S
COPPER MTN     NOT AVBL
BERTHOUD PASS  FAIR      19   9  63 NW22G30   30.57S WCI   3
COTTONWOOD PAS FAIR      41   3  20 NW9G16    30.53S
GUNNISON       FAIR       5  -1  76 CALM      30.63S
KREMMLING      FAIR       5   0  78 CALM      30.65R
LEADVILLE      FAIR      22   7  52 NE10      30.55S WCI  11
MONARCH PASS   FAIR      28  -2  26 W16       30.71S WCI  17
SALIDA         FAIR      27   9  46 W10       30.57F WCI  17
SUNLIGHT       FAIR      30  10  43 N3        30.64S
WILKERSON PASS FAIR      32   3  29 NW12G25   30.56S WCI  23
$$

COZ069>075-121400-
...SAN LUIS VALLEY/SANGRE DE CRISTO MOUNTAINS...

CITY           SKY/WX    TMP DP  RH WIND       PRES   REMARKS
ALAMOSA        FAIR       4  -4  69 CALM      30.53R
DEL NORTE      FAIR      24  -1  34 W9        30.52F WCI  14
LA VETA PASS   FAIR      28   0  29 SW25        N/A  WCI  14
SAGUACHE       FAIR      23   3  42 N7        30.52S WCI  15
$$

COZ035-036-038>040-121400-
...NORTHERN COLORADO FRONT RANGE...

CITY           SKY/WX    TMP DP  RH WIND       PRES   REMARKS
DENVER INTL AP FAIR      38   7  27 SW16      30.34F
DMNS CITY PARK NOT AVBL
AURORA         CLEAR     34   7  31 S12       30.36S WCI  26
FRONT RANGE AP FAIR      35   9  34 S8        30.35S WCI  28
ERIE MUNI ARPT FAIR      21  14  73 CALM      30.41S
BOULDER MUN AP FAIR      32  14  47 SW5       30.34S WCI  27
CENTENNIAL     FAIR      35  10  35 SE6       30.36F WCI  30
BROOMFIELD     CLEAR     37   9  30 CALM      30.35S
FORT COLLINS   FAIR      27  16  63 W5        30.35S WCI  22
LONGMONT       NOT AVBL
$$

COZ041-046-047-076>085-087-088-121400-
...PIKES PEAK/PALMER DIVIDE AND SOUTHERN FOOTHILLS...

CITY           SKY/WX    TMP DP  RH WIND       PRES   REMARKS
COLO. SPRINGS  FAIR      23   6  48 N9        30.40F WCI  13
A. F. ACADEMY  FAIR      19   3  50 N10       30.40F WCI   7
SCHRIEVER AFB  FAIR      27   4  37 CALM      30.41F
CHEYENNE MTN   FAIR      38   4  24 CALM      30.35F
ELLICOTT         N/A    N/A N/A N/A CALM      30.39F
FALCON         FAIR      24   3  40 W7        30.41S WCI  16
FORT CARSON    FAIR      27   5  38 NW12      30.38F WCI  17
LIMON          FAIR      15   5  64 N8        30.37F WCI   4
MONUMENT HILL  FAIR      28   5  37 SW9       30.40F WCI  20
CANON CITY     FAIR      34   7  32 SW7       30.39F WCI  28
WALSENBURG     FAIR      25   5  42 SW6       30.41R WCI  18
TRINIDAD       FAIR      33   7  33 SW10      30.42S WCI  25
$$

COZ042>045-048>051-090-091-121400-
...NORTHEAST COLORADO...

CITY           SKY/WX    TMP DP  RH WIND       PRES   REMARKS
GREELEY ARPT   NOT AVBL
AKRON          FAIR      28   8  43 W12       30.33S WCI  18
BURLINGTON     FAIR      20  10  65 W9        30.34F WCI   9
WRAY           FAIR      23  12  63 W10       30.33F WCI  12
YUMA           FAIR      23  10  58 W9        30.32F WCI  13
STERLING       FAIR      19  10  68 S6        30.34S WCI  11
HOLYOKE        FAIR      32  18  55 W13       30.32S WCI  22
FORT MORGAN    FAIR      21  11  65 W10       30.35S WCI   9
$$

COZ086-089-092>099-121400-
...SOUTHEAST COLORADO...

CITY           SKY/WX    TMP DP  RH WIND       PRES   REMARKS
PUEBLO         FAIR      17   5  59 W8        30.40F WCI   7
LA JUNTA       FAIR      26   6  42 W15       30.40F WCI  14
LAMAR          FAIR      19   6  57 W6        30.39F WCI  11
SPRINGFIELD      N/A     18   8  65 W3        30.39F
$$




USA.gov is the U.S. government's official web portal to all federal, state and local government web resources and services.